KD0TGF-W Weather Reports


Display with metric or nautical units.
time (UTC)temp
F
wind
direction
speed
MPH
gust
MPH
rain 1hr
in
rain 24hr
in
rain mn
in
humidity
%
barometer
mb
20260502194438 62 279 7.0 15.0 0.00 0.00 0.00 36 1014.5
20260502194338 62 283 8.0 15.0 0.00 0.00 0.00 35 1014.6
20260502194238 62 286 8.0 15.0 0.00 0.00 0.00 38 1014.6
20260502194137 62 289 8.0 15.0 0.00 0.00 0.00 35 1014.6
20260502194038 62 288 9.0 15.0 0.00 0.00 0.00 37 1014.7
20260502193938 61 285 9.0 15.0 0.00 0.00 0.00 36 1014.7
20260502193838 61 282 9.0 15.0 0.00 0.00 0.00 36 1014.8
20260502193737 61 281 9.0 15.0 0.00 0.00 0.00 38 1014.7
20260502193638 61 278 8.0 14.0 0.00 0.00 0.00 37 1014.7
20260502193538 62 278 8.0 14.0 0.00 0.00 0.00 35 1014.8
20260502193437 62 275 8.0 14.0 0.00 0.00 0.00 37 1014.8
20260502193338 61 271 7.0 14.0 0.00 0.00 0.00 36 1014.8
20260502193238 61 271 6.0 14.0 0.00 0.00 0.00 36 1014.8
20260502193138 61 273 6.0 14.0 0.00 0.00 0.00 38 1014.9
20260502193037 61 280 5.0 11.0 0.00 0.00 0.00 38 1014.9
20260502192938 61 284 5.0 11.0 0.00 0.00 0.00 37 1014.9
20260502192838 61 288 5.0 11.0 0.00 0.00 0.00 36 1014.9
20260502192738 61 296 5.0 11.0 0.00 0.00 0.00 37 1014.9
20260502192637 61 299 5.0 11.0 0.00 0.00 0.00 37 1014.9
20260502192538 61 301 5.0 14.0 0.00 0.00 0.00 35 1014.9
20260502192438 61 300 6.0 18.0 0.00 0.00 0.00 38 1014.9
20260502192338 61 299 7.0 18.0 0.00 0.00 0.00 36 1014.9
20260502192237 61 298 7.0 18.0 0.00 0.00 0.00 37 1014.9
20260502192138 61 294 7.0 18.0 0.00 0.00 0.00 36 1015.0
20260502192038 61 288 7.0 18.0 0.00 0.00 0.00 36 1015.0
20260502191938 61 288 7.0 18.0 0.00 0.00 0.00 35 1015.0
20260502191837 61 287 7.0 18.0 0.00 0.00 0.00 35 1015.0
20260502191738 61 283 7.0 18.0 0.00 0.00 0.00 38 1015.1
20260502191638 61 281 7.0 18.0 0.00 0.00 0.00 37 1015.1
20260502191538 61 281 7.0 18.0 0.00 0.00 0.00 36 1015.1
20260502191438 61 279 7.0 15.0 0.00 0.00 0.00 38 1015.1
20260502191338 60 278 7.0 14.0 0.00 0.00 0.00 34 1015.1
20260502191238 60 278 7.0 14.0 0.00 0.00 0.00 38 1015.1
20260502191037 60 277 6.0 14.0 0.00 0.00 0.00 37 1015.2
20260502190938 60 276 7.0 14.0 0.00 0.00 0.00 36 1015.2
20260502190838 60 275 6.0 14.0 0.00 0.00 0.00 36 1015.3
20260502190738 60 274 6.0 14.0 0.00 0.00 0.00 36 1015.2
20260502190637 61 273 6.0 14.0 0.00 0.00 0.00 35 1015.3
20260502190537 60 271 6.0 14.0 0.00 0.00 0.00 39 1015.3
20260502190438 60 270 6.0 14.0 0.00 0.00 0.00 37 1015.3
20260502190338 60 270 5.0 11.0 0.00 0.00 0.00 37 1015.3
20260502190138 60 272 7.0 15.0 0.00 0.00 0.00 35 1015.3
20260502190039 60 275 7.0 15.0 0.00 0.00 0.00 37 1015.4
20260502185938 60 275 7.0 15.0 0.00 0.00 0.00 37 1015.4
20260502185837 60 273 7.0 15.0 0.00 0.00 0.00 37 1015.4
20260502185737 60 270 7.0 15.0 0.00 0.00 0.00 38 1015.4
20260502185638 59 266 6.0 15.0 0.00 0.00 0.00 37 1015.4
20260502185538 59 261 6.0 15.0 0.00 0.00 0.00 36 1015.4
20260502185438 59 261 6.0 15.0 0.00 0.00 0.00 36 1015.5
20260502185337 60 260 7.0 15.0 0.00 0.00 0.00 36 1015.5
20260502185237 60 259 6.0 15.0 0.00 0.00 0.00 35 1015.5
20260502185138 60 254 6.0 14.0 0.00 0.00 0.00 38 1015.5
20260502185038 60 255 7.0 14.0 0.00 0.00 0.00 38 1015.5
20260502184937 60 257 7.0 14.0 0.00 0.00 0.00 37 1015.5
20260502184837 59 259 8.0 14.0 0.00 0.00 0.00 35 1015.4
20260502184738 59 262 8.0 14.0 0.00 0.00 0.00 35 1015.5
20260502184638 60 268 8.0 14.0 0.00 0.00 0.00 35 1015.5
20260502184539 60 272 8.0 14.0 0.00 0.00 0.00 37 1015.6
20260502184437 60 276 8.0 14.0 0.00 0.00 0.00 38 1015.6
20260502184337 59 278 8.0 14.0 0.00 0.00 0.00 36 1015.6
20260502184237 60 281 9.0 14.0 0.00 0.00 0.00 35 1015.6
20260502184137 60 285 9.0 14.0 0.00 0.00 0.00 36 1015.7
20260502184038 60 288 8.0 14.0 0.00 0.00 0.00 37 1015.8
20260502183938 60 290 9.0 15.0 0.00 0.00 0.00 38 1015.8
20260502183838 59 292 8.0 15.0 0.00 0.00 0.00 37 1015.8
20260502183738 59 295 8.0 15.0 0.00 0.00 0.00 37 1015.8
20260502183637 59 295 7.0 15.0 0.00 0.00 0.00 36 1015.8
20260502183537 59 295 7.0 15.0 0.00 0.00 0.00 37 1015.8
20260502183439 59 292 7.0 15.0 0.00 0.00 0.00 37 1015.9
20260502183338 59 289 7.0 15.0 0.00 0.00 0.00 38 1015.8
20260502183238 58 284 6.0 15.0 0.00 0.00 0.00 38 1015.8
20260502183138 58 281 6.0 15.0 0.00 0.00 0.00 38 1015.7
20260502183039 58 278 6.0 15.0 0.00 0.00 0.00 39 1015.8
20260502182938 58 276 6.0 13.0 0.00 0.00 0.00 40 1015.9
20260502182837 57 276 6.0 14.0 0.00 0.00 0.00 39 1015.9
20260502182738 57 277 7.0 14.0 0.00 0.00 0.00 38 1015.8
20260502182637 57 276 8.0 14.0 0.00 0.00 0.00 39 1015.9
20260502182537 57 276 8.0 14.0 0.00 0.00 0.00 38 1015.9
20260502182438 57 277 8.0 14.0 0.00 0.00 0.00 37 1015.8
20260502182338 57 280 8.0 14.0 0.00 0.00 0.00 39 1015.9
20260502182237 57 281 8.0 14.0 0.00 0.00 0.00 39 1015.9
20260502182137 58 281 8.0 14.0 0.00 0.00 0.00 39 1016.0
20260502182038 58 281 8.0 14.0 0.00 0.00 0.00 38 1016.0
20260502181938 58 281 8.0 14.0 0.00 0.00 0.00 38 1016.0
20260502181837 58 282 7.0 14.0 0.00 0.00 0.00 38 1016.1
20260502181737 58 282 7.0 12.0 0.00 0.00 0.00 38 1016.1
20260502181638 58 282 8.0 13.0 0.00 0.00 0.00 37 1016.0
20260502181538 58 280 8.0 15.0 0.00 0.00 0.00 38 1016.1
20260502181437 58 282 8.0 15.0 0.00 0.00 0.00 37 1016.0
20260502181337 58 283 8.0 18.0 0.00 0.00 0.00 38 1016.1
20260502181238 59 283 9.0 18.0 0.00 0.00 0.00 38 1016.2
20260502181138 59 283 10.0 18.0 0.00 0.00 0.00 37 1016.2
20260502181038 59 283 10.0 18.0 0.00 0.00 0.00 37 1016.3
20260502180937 59 282 11.0 18.0 0.00 0.00 0.00 39 1016.3
20260502180838 59 279 11.0 18.0 0.00 0.00 0.00 37 1016.2
20260502180738 59 278 11.0 18.0 0.00 0.00 0.00 37 1016.3
20260502180638 59 277 11.0 18.0 0.00 0.00 0.00 38 1016.3
20260502180537 58 277 11.0 18.0 0.00 0.00 0.00 38 1016.2
20260502180437 59 274 11.0 18.0 0.00 0.00 0.00 38 1016.4
20260502180338 59 273 10.0 16.0 0.00 0.00 0.00 39 1016.4
20260502180237 58 271 10.0 16.0 0.00 0.00 0.00 38 1016.2
20260502180137 58 271 10.0 16.0 0.00 0.00 0.00 37 1016.2
20260502170437 56 253 9.0 15.0 0.00 0.00 0.00 37 1017.2
20260502170338 56 251 9.0 15.0 0.00 0.00 0.00 37 1017.2
20260502170237 56 252 9.0 16.0 0.00 0.00 0.00 39 1017.2
20260502170137 56 251 9.0 16.0 0.00 0.00 0.00 39 1017.2
20260502164337 56 247 11.0 18.0 0.00 0.00 0.00 38 1017.3
20260502164237 56 247 11.0 18.0 0.00 0.00 0.00 38 1017.3
20260502164138 56 246 11.0 18.0 0.00 0.00 0.00 37 1017.3
20260502164037 56 245 10.0 18.0 0.00 0.00 0.00 41 1017.3
20260502163938 56 245 9.0 18.0 0.00 0.00 0.00 40 1017.3
20260502163837 55 246 9.0 18.0 0.00 0.00 0.00 39 1017.3
20260502163737 56 249 9.0 18.0 0.00 0.00 0.00 38 1017.4
20260502163637 56 255 10.0 18.0 0.00 0.00 0.00 39 1017.4
20260502163537 56 258 10.0 18.0 0.00 0.00 0.00 39 1017.4
20260502163437 55 259 10.0 18.0 0.00 0.00 0.00 40 1017.3
20260502163337 55 262 10.0 18.0 0.00 0.00 0.00 39 1017.3
20260502163238 55 265 9.0 18.0 0.00 0.00 0.00 40 1017.4
20260502163137 55 268 10.0 18.0 0.00 0.00 0.00 40 1017.4
20260502163037 55 269 10.0 18.0 0.00 0.00 0.00 39 1017.4
20260502162937 55 270 11.0 18.0 0.00 0.00 0.00 40 1017.4
20260502162837 55 270 11.0 18.0 0.00 0.00 0.00 40 1017.5
20260502162738 55 270 11.0 18.0 0.00 0.00 0.00 40 1017.6
20260502162637 55 270 11.0 18.0 0.00 0.00 0.00 41 1017.6
20260502162538 55 270 11.0 18.0 0.00 0.00 0.00 40 1017.5
20260502162437 55 270 11.0 18.0 0.00 0.00 0.00 45 1017.6
20260502162337 55 266 10.0 18.0 0.00 0.00 0.00 45 1017.6
20260502162237 55 264 10.0 18.0 0.00 0.00 0.00 41 1017.6
20260502162137 55 261 10.0 18.0 0.00 0.00 0.00 40 1017.6
20260502162037 55 262 10.0 18.0 0.00 0.00 0.00 42 1017.7
20260502161937 55 262 9.0 18.0 0.00 0.00 0.00 43 1017.7
20260502161837 55 260 9.0 18.0 0.00 0.00 0.00 39 1017.7
20260502161737 55 257 9.0 18.0 0.00 0.00 0.00 43 1017.7
20260502161638 55 255 9.0 16.0 0.00 0.00 0.00 41 1017.6
20260502161537 55 257 10.0 16.0 0.00 0.00 0.00 41 1017.7
20260502161437 55 260 10.0 17.0 0.00 0.00 0.00 39 1017.7
20260502161337 55 264 10.0 17.0 0.00 0.00 0.00 43 1017.7
20260502161237 54 265 9.0 17.0 0.00 0.00 0.00 42 1017.7
20260502161137 54 266 10.0 18.0 0.00 0.00 0.00 41 1017.7
20260502161038 54 265 10.0 18.0 0.00 0.00 0.00 42 1017.8
20260502160937 54 265 10.0 18.0 0.00 0.00 0.00 41 1017.9
20260502160837 54 266 10.0 18.0 0.00 0.00 0.00 42 1017.8
20260502160737 54 269 10.0 18.0 0.00 0.00 0.00 42 1017.8
20260502160638 54 268 10.0 18.0 0.00 0.00 0.00 41 1017.8
20260502160537 54 267 10.0 18.0 0.00 0.00 0.00 41 1017.7
20260502160437 54 268 10.0 18.0 0.00 0.00 0.00 42 1017.9
20260502160338 54 267 10.0 18.0 0.00 0.00 0.00 43 1017.9
20260502160137 54 269 10.0 16.0 0.00 0.00 0.00 46 1017.9
20260502152336 52 277 7.0 13.0 0.00 0.00 0.00 48 1018.1
20260502152237 52 277 7.0 14.0 0.00 0.00 0.00 47 1018.1
20260502152137 52 273 8.0 15.0 0.00 0.00 0.00 51 1018.1
20260502152037 52 271 8.0 15.0 0.00 0.00 0.00 49 1018.1
20260502151937 52 270 8.0 15.0 0.00 0.00 0.00 48 1018.1
20260502151836 52 270 8.0 15.0 0.00 0.00 0.00 48 1018.1
20260502151737 52 269 8.0 15.0 0.00 0.00 0.00 45 1018.1
20260502151637 52 267 8.0 15.0 0.00 0.00 0.00 48 1018.1
20260502151537 52 268 8.0 15.0 0.00 0.00 0.00 49 1018.2
20260502151437 52 269 8.0 15.0 0.00 0.00 0.00 49 1018.2
20260502151337 52 270 8.0 15.0 0.00 0.00 0.00 48 1018.2
20260502151237 52 272 8.0 15.0 0.00 0.00 0.00 46 1018.1
20260502151138 52 277 8.0 14.0 0.00 0.00 0.00 48 1018.2
20260502151037 52 276 8.0 14.0 0.00 0.00 0.00 48 1018.2
20260502150937 52 274 8.0 14.0 0.00 0.00 0.00 47 1018.3
20260502150837 52 271 8.0 14.0 0.00 0.00 0.00 50 1018.3
20260502150737 52 270 8.0 14.0 0.00 0.00 0.00 49 1018.3
20260502150638 52 271 9.0 14.0 0.00 0.00 0.00 49 1018.4
20260502150537 52 271 8.0 14.0 0.00 0.00 0.00 50 1018.4
20260502150436 52 271 8.0 14.0 0.00 0.00 0.00 50 1018.4
20260502150337 52 271 8.0 14.0 0.00 0.00 0.00 52 1018.3
20260502150237 52 269 8.0 14.0 0.00 0.00 0.00 50 1018.4
20260502150136 52 269 8.0 14.0 0.00 0.00 0.00 50 1018.3
20260502130736 42 272 5.0 8.0 0.00 0.00 0.00 69 1018.6
20260502130636 42 273 5.0 7.0 0.00 0.00 0.00 69 1018.6
20260502130536 42 272 5.0 7.0 0.00 0.00 0.00 69 1018.6
20260502130437 42 270 5.0 7.0 0.00 0.00 0.00 70 1018.6
20260502130336 42 270 4.0 7.0 0.00 0.00 0.00 69 1018.5
20260502130236 42 269 4.0 7.0 0.00 0.00 0.00 69 1018.5
20260502130136 42 268 4.0 7.0 0.00 0.00 0.00 69 1018.6
20260502123737 39 266 1.0 6.0 0.00 0.00 0.00 73 1018.6
20260502123636 39 260 1.0 6.0 0.00 0.00 0.00 73 1018.6
20260502123536 39 255 0.0 5.0 0.00 0.00 0.00 74 1018.6
20260502123437 39 241 0.0 4.0 0.00 0.00 0.00 75 1018.6
20260502123336 38 241 0.0 4.0 0.00 0.00 0.00 74 1018.6
20260502123236 38 240 1.0 4.0 0.00 0.00 0.00 75 1018.6
20260502123136 38 240 1.0 4.0 0.00 0.00 0.00 75 1018.6
20260502123036 38 240 1.0 4.0 0.00 0.00 0.00 74 1018.6
20260502122936 38 240 1.0 4.0 0.00 0.00 0.00 74 1018.6
20260502122836 38 240 0.0 4.0 0.00 0.00 0.00 74 1018.6
20260502122736 38 240 0.0 4.0 0.00 0.00 0.00 74 1018.6
20260502122636 38 239 0.0 4.0 0.00 0.00 0.00 74 1018.5
20260502122537 37 239 0.0 4.0 0.00 0.00 0.00 75 1018.5
20260502122436 37 239 0.0 4.0 0.00 0.00 0.00 74 1018.5
20260502122336 37 238 0.0 4.0 0.00 0.00 0.00 74 1018.5
20260502122236 37 238 0.0 4.0 0.00 0.00 0.00 74 1018.5
20260502122136 37 238 0.0 1.0 0.00 0.00 0.00 74 1018.5
20260502122036 37 238 0.0 1.0 0.00 0.00 0.00 74 1018.5
20260502121936 37 238 0.0 1.0 0.00 0.00 0.00 75 1018.5
20260502121836 37 238 0.0 1.0 0.00 0.00 0.00 75 1018.5
20260502121736 37 247 0.0 1.0 0.00 0.00 0.00 75 1018.5
20260502121636 37 247 0.0 1.0 0.00 0.00 0.00 75 1018.5
20260502121536 36 247 0.0 1.0 0.00 0.00 0.00 76 1018.5
20260502121437 36 247 0.0 1.0 0.00 0.00 0.00 76 1018.5
20260502121336 36 247 0.0 1.0 0.00 0.00 0.00 76 1018.5
20260502121236 36 245 0.0 1.0 0.00 0.00 0.00 76 1018.5
20260502121136 36 245 0.0 1.0 0.00 0.00 0.00 76 1018.5
20260502121036 36 245 0.0 1.0 0.00 0.00 0.00 76 1018.5
20260502120936 36 245 0.0 1.0 0.00 0.00 0.00 76 1018.5
20260502120835 36 245 0.0 1.0 0.00 0.00 0.00 76 1018.5
20260502120736 35 243 0.0 1.0 0.00 0.00 0.00 76 1018.5
20260502120636 35 243 0.0 1.0 0.00 0.00 0.00 76 1018.6
20260502120536 35 243 0.0 1.0 0.00 0.00 0.00 76 1018.4
20260502120437 35 243 0.0 1.0 0.00 0.00 0.00 76 1018.5
20260502120336 35 243 0.0 1.0 0.00 0.00 0.00 76 1018.4
20260502120236 35 242 0.0 1.0 0.00 0.00 0.00 77 1018.4
20260502120137 35 242 0.0 1.0 0.00 0.00 0.00 77 1018.5
20260502115836 34 242 0.0 1.0 0.00 0.00 0.00 77 1018.4
20260502115735 34 242 0.0 1.0 0.00 0.00 0.00 77 1018.4
20260502115636 34 242 0.0 1.0 0.00 0.00 0.00 77 1018.4
20260502115537 34 0 0.0 0.0 0.00 0.00 0.00 77 1018.4
20260502115436 34 0 0.0 0.0 0.00 0.00 0.00 78 1018.4
20260502115336 34 237 0.0 1.0 0.00 0.00 0.00 78 1018.4
20260502115236 34 237 0.0 1.0 0.00 0.00 0.00 78 1018.5
20260502115136 34 237 0.0 1.0 0.00 0.00 0.00 78 1018.4
20260502115037 34 235 0.0 1.0 0.00 0.00 0.00 78 1018.4
20260502114936 34 235 0.0 1.0 0.00 0.00 0.00 77 1018.4
20260502114836 34 235 0.0 1.0 0.00 0.00 0.00 77 1018.4
20260502114736 33 235 0.0 1.0 0.00 0.00 0.00 77 1018.4
20260502114636 33 232 0.0 2.0 0.00 0.00 0.00 77 1018.4
20260502114536 33 230 0.0 2.0 0.00 0.00 0.00 77 1018.4
20260502114436 33 229 0.0 2.0 0.00 0.00 0.00 77 1018.4
20260502114336 33 228 1.0 2.0 0.00 0.00 0.00 77 1018.4
20260502114236 33 228 1.0 2.0 0.00 0.00 0.00 77 1018.4
20260502114136 33 228 1.0 2.0 0.00 0.00 0.00 77 1018.4
20260502114036 33 228 1.0 2.0 0.00 0.00 0.00 78 1018.4
20260502113936 33 228 1.0 2.0 0.00 0.00 0.00 78 1018.4
20260502113836 33 228 1.0 2.0 0.00 0.00 0.00 78 1018.4
20260502113736 33 228 1.0 2.0 0.00 0.00 0.00 78 1018.4
20260502113636 33 227 1.0 2.0 0.00 0.00 0.00 78 1018.4
20260502113536 32 227 0.0 2.0 0.00 0.00 0.00 78 1018.4
20260502113436 32 226 0.0 2.0 0.00 0.00 0.00 78 1018.4
20260502113336 32 226 0.0 2.0 0.00 0.00 0.00 78 1018.4
20260502113237 32 0 0.0 0.0 0.00 0.00 0.00 79 1018.4
20260502113136 32 0 0.0 0.0 0.00 0.00 0.00 78 1018.3
20260502113036 32 0 0.0 0.0 0.00 0.00 0.00 78 1018.4
20260502112936 32 0 0.0 0.0 0.00 0.00 0.00 79 1018.4
20260502112836 32 0 0.0 0.0 0.00 0.00 0.00 79 1018.3
20260502112736 32 0 0.0 0.0 0.00 0.00 0.00 79 1018.3
20260502112636 32 0 0.0 0.0 0.00 0.00 0.00 79 1018.3
20260502112536 32 0 0.0 0.0 0.00 0.00 0.00 79 1018.3
20260502112436 32 0 0.0 0.0 0.00 0.00 0.00 79 1018.3
20260502112336 32 0 0.0 0.0 0.00 0.00 0.00 79 1018.3
20260502112236 32 0 0.0 0.0 0.00 0.00 0.00 79 1018.3
20260502112136 32 0 0.0 0.0 0.00 0.00 0.00 79 1018.3
20260502112036 32 0 0.0 0.0 0.00 0.00 0.00 79 1018.3
20260502111936 32 0 0.0 0.0 0.00 0.00 0.00 78 1018.3
20260502111836 32 262 0.0 1.0 0.00 0.00 0.00 78 1018.3
20260502111736 32 262 0.0 1.0 0.00 0.00 0.00 78 1018.3
20260502111636 32 262 0.0 1.0 0.00 0.00 0.00 78 1018.3
20260502111536 32 262 0.0 1.0 0.00 0.00 0.00 78 1018.3
20260502111436 32 262 0.0 1.0 0.00 0.00 0.00 79 1018.3
20260502111335 32 262 0.0 1.0 0.00 0.00 0.00 79 1018.3
20260502111236 32 262 0.0 1.0 0.00 0.00 0.00 79 1018.3
20260502111136 32 262 0.0 1.0 0.00 0.00 0.00 79 1018.3
20260502111036 32 262 0.0 1.0 0.00 0.00 0.00 79 1018.3
20260502110936 31 262 0.0 1.0 0.00 0.00 0.00 79 1018.3
20260502110836 31 0 0.0 0.0 0.00 0.00 0.00 79 1018.3
20260502110736 31 0 0.0 0.0 0.00 0.00 0.00 79 1018.3
20260502110636 31 0 0.0 0.0 0.00 0.00 0.00 79 1018.3
20260502110536 32 0 0.0 0.0 0.00 0.00 0.00 79 1018.3
20260502110436 31 0 0.0 0.0 0.00 0.00 0.00 79 1018.3
20260502110336 32 0 0.0 0.0 0.00 0.00 0.00 79 1018.3
20260502110236 32 0 0.0 0.0 0.00 0.00 0.00 79 1018.3
20260502110136 32 0 0.0 0.0 0.00 0.00 0.00 79 1018.4
20260502110035 32 0 0.0 0.0 0.00 0.00 0.00 79 1018.3
20260502105936 32 0 0.0 0.0 0.00 0.00 0.00 79 1018.3
20260502105835 32 0 0.0 0.0 0.00 0.00 0.00 79 1018.3
20260502105736 32 0 0.0 0.0 0.00 0.00 0.00 79 1018.3
20260502105636 32 0 0.0 0.0 0.00 0.00 0.00 78 1018.3
20260502105536 32 0 0.0 0.0 0.00 0.00 0.00 78 1018.3
20260502105435 32 0 0.0 0.0 0.00 0.00 0.00 78 1018.3
20260502105336 32 0 0.0 0.0 0.00 0.00 0.00 78 1018.3
20260502105236 32 0 0.0 0.0 0.00 0.00 0.00 78 1018.3
20260502105136 32 0 0.0 0.0 0.00 0.00 0.00 78 1018.3
20260502105035 32 0 0.0 0.0 0.00 0.00 0.00 79 1018.3
20260502104936 32 0 0.0 0.0 0.00 0.00 0.00 79 1018.3
20260502104836 32 0 0.0 0.0 0.00 0.00 0.00 79 1018.3
20260502104737 32 0 0.0 0.0 0.00 0.00 0.00 79 1018.3
20260502104636 32 0 0.0 0.0 0.00 0.00 0.00 79 1018.3
20260502104535 32 0 0.0 0.0 0.00 0.00 0.00 79 1018.3
20260502104435 31 0 0.0 0.0 0.00 0.00 0.00 79 1018.3
20260502104336 31 0 0.0 0.0 0.00 0.00 0.00 79 1018.3
20260502104235 31 0 0.0 0.0 0.00 0.00 0.00 79 1018.3
20260502104136 31 0 0.0 0.0 0.00 0.00 0.00 79 1018.3
20260502104036 31 0 0.0 0.0 0.00 0.00 0.00 79 1018.3
20260502103936 31 0 0.0 0.0 0.00 0.00 0.00 79 1018.3
20260502103836 31 0 0.0 0.0 0.00 0.00 0.00 79 1018.3
20260502103736 31 0 0.0 0.0 0.00 0.00 0.00 79 1018.2
20260502103636 31 0 0.0 0.0 0.00 0.00 0.00 79 1018.3
20260502103535 31 0 0.0 0.0 0.00 0.00 0.00 80 1018.2
20260502103436 31 0 0.0 0.0 0.00 0.00 0.00 79 1018.2
20260502103336 31 0 0.0 0.0 0.00 0.00 0.00 79 1018.3
20260502103236 31 0 0.0 0.0 0.00 0.00 0.00 79 1018.3
20260502103135 31 0 0.0 0.0 0.00 0.00 0.00 80 1018.3
20260502103035 31 0 0.0 0.0 0.00 0.00 0.00 80 1018.3
20260502102936 31 0 0.0 0.0 0.00 0.00 0.00 80 1018.3
20260502102836 31 0 0.0 0.0 0.00 0.00 0.00 80 1018.3
20260502102736 31 0 0.0 0.0 0.00 0.00 0.00 80 1018.3
20260502102635 31 0 0.0 0.0 0.00 0.00 0.00 79 1018.3
20260502102536 31 0 0.0 0.0 0.00 0.00 0.00 79 1018.3
20260502102436 31 0 0.0 0.0 0.00 0.00 0.00 79 1018.3
20260502102335 31 0 0.0 0.0 0.00 0.00 0.00 79 1018.3
20260502102235 31 0 0.0 0.0 0.00 0.00 0.00 80 1018.3
20260502102136 32 0 0.0 0.0 0.00 0.00 0.00 79 1018.3
20260502102037 32 0 0.0 0.0 0.00 0.00 0.00 79 1018.3
20260502101936 32 0 0.0 0.0 0.00 0.00 0.00 79 1018.3
20260502101835 32 0 0.0 0.0 0.00 0.00 0.00 79 1018.3
20260502101736 32 0 0.0 0.0 0.00 0.00 0.00 79 1018.2
20260502101636 32 0 0.0 0.0 0.00 0.00 0.00 79 1018.3
20260502101536 32 0 0.0 0.0 0.00 0.00 0.00 79 1018.3
20260502101435 32 0 0.0 0.0 0.00 0.00 0.00 79 1018.3
20260502101336 32 0 0.0 0.0 0.00 0.00 0.00 79 1018.3
20260502101236 32 0 0.0 0.0 0.00 0.00 0.00 79 1018.3
20260502101135 32 0 0.0 0.0 0.00 0.00 0.00 79 1018.2
20260502101035 32 0 0.0 0.0 0.00 0.00 0.00 79 1018.2
20260502100935 32 0 0.0 0.0 0.00 0.00 0.00 79 1018.2
20260502100836 32 0 0.0 0.0 0.00 0.00 0.00 79 1018.2
20260502100736 32 0 0.0 0.0 0.00 0.00 0.00 79 1018.2
20260502100635 32 0 0.0 0.0 0.00 0.00 0.00 79 1018.2
20260502100535 32 0 0.0 0.0 0.00 0.00 0.00 78 1018.2
20260502100436 32 0 0.0 0.0 0.00 0.00 0.00 79 1018.2
20260502100336 32 0 0.0 0.0 0.00 0.00 0.00 79 1018.2
20260502100236 32 0 0.0 0.0 0.00 0.00 0.00 78 1018.3
20260502100135 32 0 0.0 0.0 0.00 0.00 0.00 78 1018.3
20260502091436 31 0 0.0 0.0 0.00 0.00 0.00 79 1018.3
20260502091336 31 0 0.0 0.0 0.00 0.00 0.00 79 1018.3
20260502091235 31 0 0.0 0.0 0.00 0.00 0.00 79 1018.3
20260502091135 31 0 0.0 0.0 0.00 0.00 0.00 79 1018.3
20260502091035 31 0 0.0 0.0 0.00 0.00 0.00 79 1018.2
20260502090935 31 0 0.0 0.0 0.00 0.00 0.00 79 1018.2
20260502090836 31 0 0.0 0.0 0.00 0.00 0.00 79 1018.2
20260502090735 32 0 0.0 0.0 0.00 0.00 0.00 79 1018.2
20260502090635 32 0 0.0 0.0 0.00 0.00 0.00 78 1018.2
20260502090536 32 0 0.0 0.0 0.00 0.00 0.00 78 1018.2
20260502090435 32 0 0.0 0.0 0.00 0.00 0.00 78 1018.2
20260502090335 32 0 0.0 0.0 0.00 0.00 0.00 78 1018.2
20260502090236 32 0 0.0 0.0 0.00 0.00 0.00 78 1018.2
20260502090135 32 0 0.0 0.0 0.00 0.00 0.00 78 1018.2
20260502071535 33 0 0.0 0.0 0.00 0.00 0.00 76 1018.3
20260502071434 33 0 0.0 0.0 0.00 0.00 0.00 75 1018.3
20260502071335 33 0 0.0 0.0 0.00 0.00 0.00 75 1018.2
20260502071236 33 0 0.0 0.0 0.00 0.00 0.00 75 1018.3
20260502071135 33 0 0.0 0.0 0.00 0.00 0.00 75 1018.3
20260502071035 33 0 0.0 0.0 0.00 0.00 0.00 75 1018.2
20260502070935 33 0 0.0 0.0 0.00 0.00 0.00 75 1018.3
20260502070835 33 0 0.0 0.0 0.00 0.00 0.00 75 1018.3
20260502070735 33 0 0.0 0.0 0.00 0.00 0.00 75 1018.3
20260502070634 33 0 0.0 0.0 0.00 0.00 0.00 75 1018.3
20260502070535 33 0 0.0 0.0 0.00 0.00 0.00 75 1018.3
20260502070435 33 0 0.0 0.0 0.00 0.00 0.00 76 1018.3
20260502070335 33 0 0.0 0.0 0.00 0.00 0.00 76 1018.3
20260502070235 33 0 0.0 0.0 0.00 0.00 0.00 76 1018.3
20260502070135 33 0 0.0 0.0 0.00 0.00 0.00 76 1018.3
20260502070035 33 0 0.0 0.0 0.00 0.00 0.00 75 1018.4
20260502065934 33 0 0.0 0.0 0.00 0.00 0.00 75 1018.3
20260502065835 33 0 0.0 0.0 0.00 0.00 0.00 75 1018.3
20260502065735 33 0 0.0 0.0 0.00 0.00 0.00 75 1018.4
20260502065635 33 0 0.0 0.0 0.00 0.00 0.00 75 1018.3
20260502065534 33 0 0.0 0.0 0.00 0.00 0.00 75 1018.3
20260502065435 33 0 0.0 0.0 0.00 0.00 0.00 75 1018.4
20260502065335 33 0 0.0 0.0 0.00 0.00 0.00 75 1018.4
20260502065235 33 0 0.0 0.0 0.00 0.00 0.00 75 1018.3
20260502065134 33 0 0.0 0.0 0.00 0.00 0.00 75 1018.4
20260502065034 33 0 0.0 0.0 0.00 0.00 0.00 75 1018.4
20260502064935 33 0 0.0 0.0 0.00 0.00 0.00 75 1018.4
20260502064835 33 0 0.0 0.0 0.00 0.00 0.00 76 1018.4
20260502064735 33 0 0.0 0.0 0.00 0.00 0.00 76 1018.4
20260502064635 33 0 0.0 0.0 0.00 0.00 0.00 76 1018.4
20260502064535 33 0 0.0 0.0 0.00 0.00 0.00 76 1018.4
20260502064434 33 0 0.0 0.0 0.00 0.00 0.00 76 1018.5
20260502064335 33 0 0.0 0.0 0.00 0.00 0.00 76 1018.5
20260502064235 33 0 0.0 0.0 0.00 0.00 0.00 76 1018.5
20260502064135 33 0 0.0 0.0 0.00 0.00 0.00 76 1018.5
20260502064034 33 0 0.0 0.0 0.00 0.00 0.00 76 1018.4
20260502063935 33 0 0.0 0.0 0.00 0.00 0.00 76 1018.5
20260502063835 33 0 0.0 0.0 0.00 0.00 0.00 76 1018.5
20260502063734 33 0 0.0 0.0 0.00 0.00 0.00 76 1018.5
20260502063635 33 0 0.0 0.0 0.00 0.00 0.00 76 1018.5
20260502063535 33 0 0.0 0.0 0.00 0.00 0.00 76 1018.5
20260502063435 33 0 0.0 0.0 0.00 0.00 0.00 76 1018.5
20260502063334 33 0 0.0 0.0 0.00 0.00 0.00 76 1018.5
20260502063234 33 0 0.0 0.0 0.00 0.00 0.00 76 1018.5
20260502063135 33 0 0.0 0.0 0.00 0.00 0.00 76 1018.5
20260502063035 33 0 0.0 0.0 0.00 0.00 0.00 76 1018.5
20260502062935 33 0 0.0 0.0 0.00 0.00 0.00 76 1018.5
20260502062834 33 0 0.0 0.0 0.00 0.00 0.00 76 1018.6
20260502062735 33 0 0.0 0.0 0.00 0.00 0.00 76 1018.6
20260502062635 33 0 0.0 0.0 0.00 0.00 0.00 76 1018.5
20260502062536 33 0 0.0 0.0 0.00 0.00 0.00 76 1018.5
20260502062434 33 0 0.0 0.0 0.00 0.00 0.00 76 1018.6
20260502062335 33 0 0.0 0.0 0.00 0.00 0.00 76 1018.6
20260502062235 33 0 0.0 0.0 0.00 0.00 0.00 75 1018.6
20260502062134 33 0 0.0 0.0 0.00 0.00 0.00 75 1018.6
20260502062034 33 0 0.0 0.0 0.00 0.00 0.00 75 1018.6
20260502061935 33 0 0.0 0.0 0.00 0.00 0.00 75 1018.6
20260502061836 33 0 0.0 0.0 0.00 0.00 0.00 75 1018.5
20260502061734 34 0 0.0 0.0 0.00 0.00 0.00 74 1018.5
20260502061635 34 0 0.0 0.0 0.00 0.00 0.00 75 1018.5
20260502061535 34 0 0.0 0.0 0.00 0.00 0.00 74 1018.6
20260502061434 34 0 0.0 0.0 0.00 0.00 0.00 74 1018.6
20260502061335 34 0 0.0 0.0 0.00 0.00 0.00 74 1018.6
20260502061235 34 0 0.0 0.0 0.00 0.00 0.00 74 1018.6
20260502061135 34 0 0.0 0.0 0.00 0.00 0.00 73 1018.6
20260502061034 34 0 0.0 0.0 0.00 0.00 0.00 74 1018.6
20260502060934 34 0 0.0 0.0 0.00 0.00 0.00 73 1018.6
20260502060834 34 0 0.0 0.0 0.00 0.00 0.00 73 1018.6
20260502060735 34 0 0.0 0.0 0.00 0.00 0.00 73 1018.6
20260502060635 34 0 0.0 0.0 0.00 0.00 0.00 73 1018.6
20260502060534 34 0 0.0 0.0 0.00 0.00 0.00 73 1018.5
20260502060434 34 0 0.0 0.0 0.00 0.00 0.00 74 1018.6
20260502060334 34 0 0.0 0.0 0.00 0.00 0.00 73 1018.6
20260502060235 34 0 0.0 0.0 0.00 0.00 0.00 74 1018.5
20260502060135 34 0 0.0 0.0 0.00 0.00 0.00 74 1018.6
20260502060035 34 0 0.0 0.0 0.00 0.00 0.00 74 1018.5
20260502055934 34 0 0.0 0.0 0.00 0.00 0.00 74 1018.6
20260502055835 34 0 0.0 0.0 0.00 0.00 0.00 74 1018.5
20260502055735 34 0 0.0 0.0 0.00 0.00 0.00 74 1018.6
20260502055634 34 0 0.0 0.0 0.00 0.00 0.00 74 1018.5
20260502055534 34 0 0.0 0.0 0.00 0.00 0.00 74 1018.6
20260502055434 34 0 0.0 0.0 0.00 0.00 0.00 74 1018.6
20260502055335 34 0 0.0 0.0 0.00 0.00 0.00 74 1018.5
20260502055235 34 0 0.0 0.0 0.00 0.00 0.00 74 1018.6
20260502055134 34 0 0.0 0.0 0.00 0.00 0.00 74 1018.6
20260502055035 34 0 0.0 0.0 0.00 0.00 0.00 74 1018.5
20260502054935 34 0 0.0 0.0 0.00 0.00 0.00 73 1018.5
20260502054834 34 0 0.0 0.0 0.00 0.00 0.00 73 1018.5
20260502054735 34 0 0.0 0.0 0.00 0.00 0.00 73 1018.5
20260502054634 34 0 0.0 0.0 0.00 0.00 0.00 73 1018.5
20260502054535 34 0 0.0 0.0 0.00 0.00 0.00 73 1018.5
20260502054434 34 0 0.0 0.0 0.00 0.00 0.00 74 1018.5
20260502054334 34 0 0.0 0.0 0.00 0.00 0.00 74 1018.5
20260502054234 34 0 0.0 0.0 0.00 0.00 0.00 74 1018.5
20260502054135 34 0 0.0 0.0 0.00 0.00 0.00 74 1018.5
20260502054035 34 0 0.0 0.0 0.00 0.00 0.00 74 1018.5
20260502053935 34 0 0.0 0.0 0.00 0.00 0.00 74 1018.5
20260502053834 34 0 0.0 0.0 0.00 0.00 0.00 74 1018.5
20260502053735 34 0 0.0 0.0 0.00 0.00 0.00 74 1018.5
20260502053634 34 0 0.0 0.0 0.00 0.00 0.00 74 1018.5
20260502053535 34 0 0.0 0.0 0.00 0.00 0.00 74 1018.5
20260502053434 34 0 0.0 0.0 0.00 0.00 0.00 74 1018.5
20260502053334 34 0 0.0 0.0 0.00 0.00 0.00 74 1018.5
20260502053235 34 0 0.0 0.0 0.00 0.00 0.00 74 1018.5
20260502053134 34 0 0.0 0.0 0.00 0.00 0.00 74 1018.5
20260502053034 34 0 0.0 0.0 0.00 0.00 0.00 74 1018.5
20260502052935 34 0 0.0 0.0 0.00 0.00 0.00 74 1018.4
20260502052835 34 0 0.0 0.0 0.00 0.00 0.00 73 1018.5
20260502052734 34 0 0.0 0.0 0.00 0.00 0.00 73 1018.4
20260502052634 34 0 0.0 0.0 0.00 0.00 0.00 73 1018.4
20260502052534 34 0 0.0 0.0 0.00 0.00 0.00 73 1018.4
20260502052436 34 0 0.0 0.0 0.00 0.00 0.00 73 1018.4
20260502052334 34 0 0.0 0.0 0.00 0.00 0.00 73 1018.4
20260502052234 34 0 0.0 0.0 0.00 0.00 0.00 73 1018.4
20260502052135 34 0 0.0 0.0 0.00 0.00 0.00 73 1018.4
20260502052034 34 0 0.0 0.0 0.00 0.00 0.00 73 1018.4
20260502051934 34 0 0.0 0.0 0.00 0.00 0.00 73 1018.4
20260502051835 34 0 0.0 0.0 0.00 0.00 0.00 73 1018.4
20260502051734 34 0 0.0 0.0 0.00 0.00 0.00 73 1018.5
20260502051635 34 0 0.0 0.0 0.00 0.00 0.00 73 1018.5
20260502051534 34 0 0.0 0.0 0.00 0.00 0.00 73 1018.5
20260502051434 34 0 0.0 0.0 0.00 0.00 0.00 73 1018.4
20260502051335 35 0 0.0 0.0 0.00 0.00 0.00 73 1018.5
20260502051234 35 0 0.0 0.0 0.00 0.00 0.00 73 1018.5
20260502051134 35 0 0.0 0.0 0.00 0.00 0.00 73 1018.5
20260502051034 35 0 0.0 0.0 0.00 0.00 0.00 73 1018.4
20260502050935 35 0 0.0 0.0 0.00 0.00 0.00 74 1018.4
20260502050834 35 0 0.0 0.0 0.00 0.00 0.00 73 1018.4
20260502050734 35 0 0.0 0.0 0.00 0.00 0.00 73 1018.4
20260502050635 35 0 0.0 0.0 0.00 0.00 0.00 73 1018.5
20260502050535 34 0 0.0 0.0 0.00 0.00 0.00 73 1018.4
20260502050434 34 0 0.0 0.0 0.00 0.00 0.00 73 1018.4
20260502050334 34 0 0.0 0.0 0.00 0.00 0.00 73 1018.4
20260502050235 34 0 0.0 0.0 0.00 0.00 0.00 73 1018.3
20260502050134 34 0 0.0 0.0 0.00 0.00 0.00 74 1018.3
20260502050035 34 0 0.0 0.0 0.00 0.00 0.00 74 1018.3
20260502045934 34 0 0.0 0.0 0.00 0.00 0.00 74 1018.3
20260502045834 34 0 0.0 0.0 0.00 0.00 0.00 74 1018.3
20260502045735 34 0 0.0 0.0 0.00 0.00 0.00 74 1018.3
20260502045634 34 0 0.0 0.0 0.00 0.00 0.00 73 1018.3
20260502045534 34 0 0.0 0.0 0.00 0.00 0.00 73 1018.3
20260502045434 34 0 0.0 0.0 0.00 0.00 0.00 74 1018.2
20260502045335 34 0 0.0 0.0 0.00 0.00 0.00 73 1018.3
20260502045234 34 0 0.0 0.0 0.00 0.00 0.00 73 1018.3
20260502045134 34 0 0.0 0.0 0.00 0.00 0.00 73 1018.3
20260502045035 35 0 0.0 0.0 0.00 0.00 0.00 73 1018.3
20260502044934 35 0 0.0 0.0 0.00 0.00 0.00 73 1018.3
20260502044834 35 0 0.0 0.0 0.00 0.00 0.00 73 1018.3
20260502044735 35 0 0.0 0.0 0.00 0.00 0.00 73 1018.3
20260502044634 35 0 0.0 0.0 0.00 0.00 0.00 72 1018.3
20260502044534 35 0 0.0 0.0 0.00 0.00 0.00 73 1018.3
20260502044434 35 0 0.0 0.0 0.00 0.00 0.00 73 1018.3
20260502044335 36 0 0.0 0.0 0.00 0.00 0.00 73 1018.3
20260502044235 36 0 0.0 0.0 0.00 0.00 0.00 72 1018.2
20260502044134 36 0 0.0 0.0 0.00 0.00 0.00 72 1018.3
20260502044034 36 0 0.0 0.0 0.00 0.00 0.00 72 1018.3
20260502043934 36 0 0.0 0.0 0.00 0.00 0.00 72 1018.3
20260502043835 36 0 0.0 0.0 0.00 0.00 0.00 70 1018.3
20260502043734 36 0 0.0 0.0 0.00 0.00 0.00 70 1018.3
20260502043634 36 0 0.0 0.0 0.00 0.00 0.00 70 1018.3
20260502043534 36 0 0.0 0.0 0.00 0.00 0.00 70 1018.3
20260502043434 36 0 0.0 0.0 0.00 0.00 0.00 70 1018.2
20260502043335 36 0 0.0 0.0 0.00 0.00 0.00 70 1018.3
20260502043234 36 0 0.0 0.0 0.00 0.00 0.00 70 1018.2
20260502043134 35 0 0.0 0.0 0.00 0.00 0.00 70 1018.3
20260502043035 35 0 0.0 0.0 0.00 0.00 0.00 70 1018.2
20260502042934 35 0 0.0 0.0 0.00 0.00 0.00 70 1018.2
20260502042834 35 0 0.0 0.0 0.00 0.00 0.00 71 1018.3
20260502042734 35 0 0.0 0.0 0.00 0.00 0.00 71 1018.3
20260502042634 35 0 0.0 0.0 0.00 0.00 0.00 71 1018.2
20260502042534 35 0 0.0 0.0 0.00 0.00 0.00 72 1018.2
20260502042434 35 0 0.0 0.0 0.00 0.00 0.00 72 1018.2
20260502042335 35 0 0.0 0.0 0.00 0.00 0.00 72 1018.3
20260502042234 35 0 0.0 0.0 0.00 0.00 0.00 72 1018.3
20260502042134 35 0 0.0 0.0 0.00 0.00 0.00 71 1018.3
20260502042034 35 0 0.0 0.0 0.00 0.00 0.00 70 1018.2
20260502041935 36 0 0.0 0.0 0.00 0.00 0.00 69 1018.2
20260502041834 36 0 0.0 0.0 0.00 0.00 0.00 70 1018.3
20260502041734 36 0 0.0 0.0 0.00 0.00 0.00 70 1018.3
20260502041634 36 0 0.0 0.0 0.00 0.00 0.00 70 1018.2
20260502041534 36 0 0.0 0.0 0.00 0.00 0.00 70 1018.2
20260502041434 36 0 0.0 0.0 0.00 0.00 0.00 70 1018.3
20260502041334 36 0 0.0 0.0 0.00 0.00 0.00 69 1018.2
20260502041234 36 0 0.0 0.0 0.00 0.00 0.00 68 1018.3
20260502041134 36 0 0.0 0.0 0.00 0.00 0.00 68 1018.2
20260502041035 37 0 0.0 0.0 0.00 0.00 0.00 68 1018.3
20260502040934 37 0 0.0 0.0 0.00 0.00 0.00 68 1018.3
20260502040834 37 0 0.0 0.0 0.00 0.00 0.00 68 1018.3
20260502040734 37 0 0.0 0.0 0.00 0.00 0.00 68 1018.3
20260502040634 37 0 0.0 0.0 0.00 0.00 0.00 68 1018.3
20260502040535 37 0 0.0 0.0 0.00 0.00 0.00 68 1018.4
20260502040434 37 0 0.0 0.0 0.00 0.00 0.00 68 1018.3
20260502040335 37 0 0.0 0.0 0.00 0.00 0.00 67 1018.3
20260502040234 37 0 0.0 0.0 0.00 0.00 0.00 66 1018.3
20260502040134 37 0 0.0 0.0 0.00 0.00 0.00 66 1018.3
20260502040034 37 0 0.0 0.0 0.00 0.00 0.00 66 1018.3
20260502035934 37 0 0.0 0.0 0.00 0.00 0.00 66 1018.4
20260502035834 38 0 0.0 0.0 0.00 0.00 0.00 66 1018.4
20260502035734 38 0 0.0 0.0 0.00 0.00 0.00 66 1018.4
20260502035634 38 0 0.0 0.0 0.00 0.00 0.00 66 1018.5
20260502035534 38 0 0.0 0.0 0.00 0.00 0.00 66 1018.4
20260502035434 38 0 0.0 0.0 0.00 0.00 0.00 66 1018.4
20260502035334 38 0 0.0 0.0 0.00 0.00 0.00 66 1018.4
20260502035234 38 0 0.0 0.0 0.00 0.00 0.00 66 1018.4
20260502035134 38 0 0.0 0.0 0.00 0.00 0.00 66 1018.4
20260502035034 39 0 0.0 0.0 0.00 0.00 0.00 65 1018.4
20260502034933 39 0 0.0 0.0 0.00 0.00 0.00 64 1018.4
20260502034834 39 0 0.0 0.0 0.00 0.00 0.00 64 1018.4
20260502034734 39 0 0.0 0.0 0.00 0.00 0.00 64 1018.4
20260502034635 39 0 0.0 0.0 0.00 0.00 0.00 64 1018.4
20260502034535 39 0 0.0 0.0 0.00 0.00 0.00 63 1018.4
20260502034434 39 0 0.0 0.0 0.00 0.00 0.00 62 1018.4
20260502034334 39 0 0.0 0.0 0.00 0.00 0.00 62 1018.4
20260502034233 39 0 0.0 0.0 0.00 0.00 0.00 62 1018.4
20260502034134 39 0 0.0 0.0 0.00 0.00 0.00 62 1018.4
20260502034034 39 0 0.0 0.0 0.00 0.00 0.00 62 1018.4
20260502033934 40 0 0.0 0.0 0.00 0.00 0.00 62 1018.5
20260502033834 39 0 0.0 0.0 0.00 0.00 0.00 61 1018.4
20260502033734 39 0 0.0 0.0 0.00 0.00 0.00 61 1018.5
20260502033633 39 0 0.0 0.0 0.00 0.00 0.00 61 1018.5
20260502033534 39 0 0.0 0.0 0.00 0.00 0.00 61 1018.5
20260502033434 39 0 0.0 0.0 0.00 0.00 0.00 62 1018.5
20260502033334 39 0 0.0 0.0 0.00 0.00 0.00 62 1018.5
20260502033235 39 0 0.0 0.0 0.00 0.00 0.00 62 1018.5
20260502033134 39 0 0.0 0.0 0.00 0.00 0.00 61 1018.5
20260502033034 39 0 0.0 0.0 0.00 0.00 0.00 61 1018.4
20260502032934 39 0 0.0 0.0 0.00 0.00 0.00 61 1018.5
20260502032834 39 0 0.0 0.0 0.00 0.00 0.00 61 1018.5
20260502032735 39 0 0.0 0.0 0.00 0.00 0.00 61 1018.4
20260502032634 39 0 0.0 0.0 0.00 0.00 0.00 61 1018.4
20260502032533 39 0 0.0 0.0 0.00 0.00 0.00 62 1018.4
20260502032434 39 0 0.0 0.0 0.00 0.00 0.00 61 1018.4
20260502032334 39 0 0.0 0.0 0.00 0.00 0.00 61 1018.4
20260502032234 39 0 0.0 0.0 0.00 0.00 0.00 61 1018.4
20260502032133 39 0 0.0 0.0 0.00 0.00 0.00 62 1018.4
20260502032033 39 0 0.0 0.0 0.00 0.00 0.00 61 1018.4
20260502031934 39 0 0.0 0.0 0.00 0.00 0.00 61 1018.4
20260502031834 39 0 0.0 0.0 0.00 0.00 0.00 61 1018.4
20260502031734 40 0 0.0 0.0 0.00 0.00 0.00 61 1018.4
20260502031634 40 0 0.0 0.0 0.00 0.00 0.00 61 1018.4
20260502031534 40 0 0.0 0.0 0.00 0.00 0.00 61 1018.4
20260502031434 40 0 0.0 0.0 0.00 0.00 0.00 61 1018.4
20260502031334 40 0 0.0 0.0 0.00 0.00 0.00 61 1018.4
20260502031234 40 0 0.0 0.0 0.00 0.00 0.00 61 1018.4
20260502031134 40 0 0.0 0.0 0.00 0.00 0.00 62 1018.4
20260502031034 40 0 0.0 0.0 0.00 0.00 0.00 62 1018.4
20260502030934 40 0 0.0 0.0 0.00 0.00 0.00 62 1018.4
20260502030834 40 0 0.0 0.0 0.00 0.00 0.00 61 1018.4
20260502030734 40 0 0.0 0.0 0.00 0.00 0.00 61 1018.3
20260502030635 40 0 0.0 0.0 0.00 0.00 0.00 61 1018.3
20260502030534 40 0 0.0 0.0 0.00 0.00 0.00 61 1018.4
20260502030433 40 0 0.0 0.0 0.00 0.00 0.00 60 1018.3
20260502030334 40 0 0.0 0.0 0.00 0.00 0.00 59 1018.3
20260502030234 40 0 0.0 0.0 0.00 0.00 0.00 59 1018.3
20260502030134 40 0 0.0 0.0 0.00 0.00 0.00 59 1018.4
20260502030033 40 0 0.0 0.0 0.00 0.00 0.00 59 1018.3
20260502025934 41 0 0.0 0.0 0.00 0.00 0.00 59 1018.3
20260502025834 41 0 0.0 0.0 0.00 0.00 0.00 58 1018.3
20260502025735 41 0 0.0 0.0 0.00 0.00 0.00 58 1018.3
20260502025633 41 0 0.0 0.0 0.00 0.00 0.00 58 1018.3
20260502025533 41 0 0.0 0.0 0.00 0.00 0.00 57 1018.3
20260502025434 41 0 0.0 0.0 0.00 0.00 0.00 57 1018.3
20260502025334 41 0 0.0 0.0 0.00 0.00 0.00 57 1018.4
20260502025234 41 0 0.0 0.0 0.00 0.00 0.00 57 1018.3
20260502025134 42 0 0.0 0.0 0.00 0.00 0.00 58 1018.3
20260502025034 42 0 0.0 0.0 0.00 0.00 0.00 58 1018.4
20260502024933 42 0 0.0 0.0 0.00 0.00 0.00 58 1018.3
20260502024833 42 0 0.0 0.0 0.00 0.00 0.00 57 1018.3
20260502024734 42 0 0.0 0.0 0.00 0.00 0.00 57 1018.4
20260502024634 42 0 0.0 0.0 0.00 0.00 0.00 57 1018.3
20260502024534 42 0 0.0 0.0 0.00 0.00 0.00 57 1018.3
20260502024434 43 0 0.0 0.0 0.00 0.00 0.00 55 1018.3
20260502024333 43 0 0.0 0.0 0.00 0.00 0.00 55 1018.3
20260502024233 43 0 0.0 0.0 0.00 0.00 0.00 55 1018.3
20260502024134 43 0 0.0 0.0 0.00 0.00 0.00 55 1018.3
20260502024034 43 0 0.0 0.0 0.00 0.00 0.00 55 1018.3
20260502023934 43 0 0.0 0.0 0.00 0.00 0.00 54 1018.3
20260502023834 43 0 0.0 0.0 0.00 0.00 0.00 54 1018.3
20260502023734 43 0 0.0 0.0 0.00 0.00 0.00 54 1018.3
20260502023634 43 0 0.0 0.0 0.00 0.00 0.00 54 1018.3
20260502023534 43 0 0.0 0.0 0.00 0.00 0.00 53 1018.3
20260502023433 43 0 0.0 0.0 0.00 0.00 0.00 53 1018.3
20260502023334 43 0 0.0 0.0 0.00 0.00 0.00 53 1018.2
20260502023234 43 0 0.0 0.0 0.00 0.00 0.00 53 1018.2
20260502023134 43 0 0.0 0.0 0.00 0.00 0.00 53 1018.3
20260502023033 43 0 0.0 0.0 0.00 0.00 0.00 53 1018.2
20260502022934 43 0 0.0 0.0 0.00 0.00 0.00 53 1018.2
20260502022834 43 0 0.0 0.0 0.00 0.00 0.00 53 1018.2
20260502022734 44 0 0.0 0.0 0.00 0.00 0.00 53 1018.2
20260502022634 44 0 0.0 0.0 0.00 0.00 0.00 53 1018.2
20260502022534 44 0 0.0 0.0 0.00 0.00 0.00 53 1018.2
20260502022434 44 0 0.0 0.0 0.00 0.00 0.00 53 1018.2
20260502022333 44 0 0.0 0.0 0.00 0.00 0.00 53 1018.2
20260502022134 44 0 0.0 0.0 0.00 0.00 0.00 52 1018.2
20260502022034 44 0 0.0 0.0 0.00 0.00 0.00 52 1018.1
20260502021934 44 0 0.0 0.0 0.00 0.00 0.00 52 1018.1
20260502021833 44 0 0.0 0.0 0.00 0.00 0.00 52 1018.1
20260502021734 44 0 0.0 0.0 0.00 0.00 0.00 52 1018.1
20260502021634 44 0 0.0 0.0 0.00 0.00 0.00 52 1018.1
20260502021533 44 0 0.0 0.0 0.00 0.00 0.00 52 1018.1
20260502021433 44 0 0.0 0.0 0.00 0.00 0.00 52 1018.1
20260502021334 44 0 0.0 0.0 0.00 0.00 0.00 52 1018.1
20260502021233 44 0 0.0 0.0 0.00 0.00 0.00 52 1018.1
20260502021134 44 0 0.0 0.0 0.00 0.00 0.00 52 1018.1
20260502021034 45 0 0.0 0.0 0.00 0.00 0.00 52 1018.0
20260502020933 45 0 0.0 0.0 0.00 0.00 0.00 52 1018.0
20260502020834 45 0 0.0 0.0 0.00 0.00 0.00 51 1018.1
20260502020734 45 0 0.0 0.0 0.00 0.00 0.00 51 1018.0
20260502020633 45 0 0.0 0.0 0.00 0.00 0.00 51 1018.0
20260502020533 45 0 0.0 0.0 0.00 0.00 0.00 51 1018.0
20260502020433 45 0 0.0 0.0 0.00 0.00 0.00 51 1018.0
20260502020334 45 0 0.0 0.0 0.00 0.00 0.00 51 1018.0
20260502020234 45 0 0.0 0.0 0.00 0.00 0.00 51 1018.0
20260502020134 45 0 0.0 0.0 0.00 0.00 0.00 51 1018.0
20260502020033 45 0 0.0 0.0 0.00 0.00 0.00 51 1018.0
20260502015934 45 0 0.0 0.0 0.00 0.00 0.00 51 1018.0
20260502015834 45 0 0.0 0.0 0.00 0.00 0.00 52 1018.0
20260502015734 45 0 0.0 0.0 0.00 0.00 0.00 52 1018.0
20260502015633 45 0 0.0 0.0 0.00 0.00 0.00 52 1018.0
20260502015533 45 0 0.0 0.0 0.00 0.00 0.00 52 1018.0
20260502015434 46 0 0.0 0.0 0.00 0.00 0.00 52 1018.0
20260502015335 46 0 0.0 0.0 0.00 0.00 0.00 52 1017.9
20260502015233 46 356 0.0 1.0 0.00 0.00 0.00 52 1017.9
20260502015133 46 356 0.0 1.0 0.00 0.00 0.00 52 1018.0
20260502015034 46 356 0.0 1.0 0.00 0.00 0.00 52 1018.0
20260502014934 46 356 0.0 1.0 0.00 0.00 0.00 52 1018.0
20260502014833 46 356 0.0 1.0 0.00 0.00 0.00 52 1017.9
20260502014734 46 356 0.0 1.0 0.00 0.00 0.00 51 1017.9
20260502014634 46 356 0.0 1.0 0.00 0.00 0.00 51 1017.9
20260502014533 46 356 0.0 1.0 0.00 0.00 0.00 50 1017.9
20260502014433 46 356 0.0 1.0 0.00 0.00 0.00 50 1017.9
20260502014333 46 356 0.0 1.0 0.00 0.00 0.00 50 1017.9
20260502014234 46 0 0.0 0.0 0.00 0.00 0.00 51 1017.9
20260502014133 46 0 0.0 0.0 0.00 0.00 0.00 50 1017.8
20260502014033 46 0 0.0 0.0 0.00 0.00 0.00 49 1017.8
20260502013933 47 40 0.0 1.0 0.00 0.00 0.00 49 1017.8
20260502013834 47 33 0.0 1.0 0.00 0.00 0.00 49 1017.8
20260502013734 47 33 0.0 1.0 0.00 0.00 0.00 49 1017.8
20260502013634 47 33 0.0 1.0 0.00 0.00 0.00 48 1017.8
20260502013533 47 33 0.0 1.0 0.00 0.00 0.00 48 1017.7
20260502013433 47 30 0.0 1.0 0.00 0.00 0.00 48 1017.8
20260502013334 47 27 0.0 1.0 0.00 0.00 0.00 48 1017.8
20260502013234 47 27 0.0 1.0 0.00 0.00 0.00 47 1017.7
20260502013134 47 24 0.0 1.0 0.00 0.00 0.00 47 1017.7
20260502013033 47 10 0.0 3.0 0.00 0.00 0.00 47 1017.7
20260502012933 47 3 0.0 3.0 0.00 0.00 0.00 47 1017.7
20260502012834 47 3 0.0 3.0 0.00 0.00 0.00 47 1017.8
20260502012733 47 3 0.0 3.0 0.00 0.00 0.00 47 1017.8
20260502012633 47 3 0.0 3.0 0.00 0.00 0.00 47 1017.8
20260502012534 48 3 0.0 3.0 0.00 0.00 0.00 47 1017.7
20260502012433 48 2 0.0 3.0 0.00 0.00 0.00 47 1017.7
20260502012334 48 1 0.0 3.0 0.00 0.00 0.00 47 1017.7
20260502012233 48 1 0.0 3.0 0.00 0.00 0.00 46 1017.7
20260502012133 48 1 0.0 3.0 0.00 0.00 0.00 46 1017.7
20260502012034 48 357 0.0 3.0 0.00 0.00 0.00 47 1017.7
20260502011934 48 355 0.0 3.0 0.00 0.00 0.00 46 1017.7
20260502011834 48 349 0.0 4.0 0.00 0.00 0.00 46 1017.7
20260502011733 48 342 0.0 4.0 0.00 0.00 0.00 46 1017.7
20260502011633 48 341 1.0 4.0 0.00 0.00 0.00 46 1017.6
20260502011534 48 341 1.0 4.0 0.00 0.00 0.00 46 1017.6
20260502011433 48 341 1.0 4.0 0.00 0.00 0.00 46 1017.7
20260502011333 48 341 1.0 4.0 0.00 0.00 0.00 46 1017.7
20260502011234 48 341 1.0 4.0 0.00 0.00 0.00 47 1017.7
20260502011133 48 341 1.0 4.0 0.00 0.00 0.00 46 1017.7
20260502011033 49 340 1.0 4.0 0.00 0.00 0.00 45 1017.6
20260502010933 49 341 1.0 4.0 0.00 0.00 0.00 45 1017.6
20260502010834 49 341 1.0 4.0 0.00 0.00 0.00 45 1017.7
20260502010733 49 344 0.0 4.0 0.00 0.00 0.00 45 1017.7
20260502010633 49 345 0.0 4.0 0.00 0.00 0.00 45 1017.7
20260502010533 49 347 1.0 4.0 0.00 0.00 0.00 46 1017.7
20260502010434 49 348 1.0 4.0 0.00 0.00 0.00 46 1017.7
20260502010333 49 347 1.0 5.0 0.00 0.00 0.00 45 1017.6
20260502010233 49 345 1.0 5.0 0.00 0.00 0.00 45 1017.6
20260502010133 49 341 2.0 6.0 0.00 0.00 0.00 44 1017.6
20260502010034 49 338 2.0 8.0 0.00 0.00 0.00 44 1017.6
20260502005933 49 336 3.0 8.0 0.00 0.00 0.00 43 1017.6
20260502005833 49 336 3.0 8.0 0.00 0.00 0.00 43 1017.6
20260502005733 49 336 4.0 8.0 0.00 0.00 0.00 43 1017.6
20260502005634 49 335 4.0 8.0 0.00 0.00 0.00 43 1017.5
20260502005533 49 334 4.0 8.0 0.00 0.00 0.00 43 1017.5
20260502005433 49 333 4.0 8.0 0.00 0.00 0.00 43 1017.5
20260502005333 49 332 4.0 8.0 0.00 0.00 0.00 42 1017.4
20260502005234 49 332 4.0 8.0 0.00 0.00 0.00 41 1017.6
20260502005133 49 332 3.0 8.0 0.00 0.00 0.00 41 1017.5
20260502005033 49 333 3.0 8.0 0.00 0.00 0.00 41 1017.5
20260502004933 49 334 2.0 8.0 0.00 0.00 0.00 41 1017.4
20260502004834 49 334 2.0 8.0 0.00 0.00 0.00 43 1017.4
20260502004733 49 334 2.0 6.0 0.00 0.00 0.00 43 1017.4
20260502004633 49 335 2.0 5.0 0.00 0.00 0.00 44 1017.4
20260502004533 49 336 2.0 5.0 0.00 0.00 0.00 44 1017.4
20260502004434 49 336 2.0 7.0 0.00 0.00 0.00 44 1017.4
20260502004333 50 336 2.0 7.0 0.00 0.00 0.00 44 1017.4
20260502004234 50 338 3.0 7.0 0.00 0.00 0.00 43 1017.4
20260502004133 50 340 3.0 7.0 0.00 0.00 0.00 43 1017.3
20260502004033 50 341 3.0 8.0 0.00 0.00 0.00 43 1017.3
20260502003933 50 343 3.0 8.0 0.00 0.00 0.00 43 1017.3
20260502003833 50 343 3.0 8.0 0.00 0.00 0.00 42 1017.3
20260502003733 50 345 3.0 8.0 0.00 0.00 0.00 42 1017.3
20260502003633 50 347 3.0 8.0 0.00 0.00 0.00 43 1017.3
20260502003533 50 347 3.0 8.0 0.00 0.00 0.00 42 1017.3
20260502003433 50 351 3.0 8.0 0.00 0.00 0.00 42 1017.3
20260502003333 50 350 3.0 8.0 0.00 0.00 0.00 42 1017.3
20260502003233 50 346 3.0 9.0 0.00 0.00 0.00 42 1017.3
20260502003133 50 343 3.0 9.0 0.00 0.00 0.00 42 1017.2
20260502003033 50 343 3.0 9.0 0.00 0.00 0.00 43 1017.2
20260502002933 50 341 3.0 9.0 0.00 0.00 0.00 44 1017.3
20260502002833 50 338 3.0 9.0 0.00 0.00 0.00 43 1017.3
20260502002733 50 336 4.0 9.0 0.00 0.00 0.00 43 1017.3
20260502002633 50 336 4.0 9.0 0.00 0.00 0.00 43 1017.3
20260502002534 50 336 4.0 9.0 0.00 0.00 0.00 43 1017.2
20260502002433 50 334 4.0 9.0 0.00 0.00 0.00 40 1017.2
20260502002334 50 334 4.0 9.0 0.00 0.00 0.00 41 1017.1
20260502002233 50 334 4.0 8.0 0.00 0.00 0.00 43 1017.2
20260502002133 50 334 4.0 8.0 0.00 0.00 0.00 43 1017.2
20260502002033 50 334 5.0 8.0 0.00 0.00 0.00 42 1017.2
20260502001934 50 334 5.0 8.0 0.00 0.00 0.00 40 1017.2
20260502001833 50 334 4.0 8.0 0.00 0.00 0.00 40 1017.2
20260502001734 50 333 4.0 8.0 0.00 0.00 0.00 40 1017.2
20260502001633 50 333 4.0 8.0 0.00 0.00 0.00 40 1017.2
20260502001533 50 331 4.0 8.0 0.00 0.00 0.00 41 1017.1
20260502001433 50 331 4.0 9.0 0.00 0.00 0.00 40 1017.1
20260502001333 50 331 5.0 9.0 0.00 0.00 0.00 41 1017.1
20260502001233 50 332 5.0 9.0 0.00 0.00 0.00 42 1017.1
20260502001134 50 332 4.0 9.0 0.00 0.00 0.00 40 1017.1
20260502001033 50 334 5.0 9.0 0.00 0.00 0.00 40 1017.1
20260502000933 50 337 5.0 9.0 0.00 0.00 0.00 41 1017.1
20260502000833 50 338 5.0 9.0 0.00 0.00 0.00 41 1017.1
20260502000734 50 337 5.0 9.0 0.00 0.00 0.00 40 1017.1
20260502000633 50 337 5.0 9.0 0.00 0.00 0.00 39 1017.1
20260502000533 50 337 5.0 9.0 0.00 0.00 0.00 41 1017.0
20260502000434 50 337 5.0 9.0 0.00 0.00 0.00 40 1017.0
20260502000333 50 335 5.0 10.0 0.00 0.00 0.00 41 1017.1
20260502000234 50 334 5.0 10.0 0.00 0.00 0.00 41 1017.0
20260502000133 50 335 5.0 10.0 0.00 0.00 0.00 42 1017.1
20260502000033 51 334 5.0 10.0 0.00 0.00 0.00 41 1017.1
20260501235933 51 334 5.0 10.0 0.00 0.00 0.00 41 1017.1
20260501235834 51 333 5.0 10.0 0.00 0.00 0.00 40 1017.0
20260501235733 51 334 5.0 10.0 0.00 0.00 0.00 39 1017.1
20260501235633 51 334 5.0 10.0 0.00 0.00 0.00 39 1017.1
20260501235534 51 336 5.0 10.0 0.00 0.00 0.00 40 1017.0
20260501235433 51 339 4.0 10.0 0.00 0.00 0.00 40 1017.0
20260501235333 51 342 4.0 9.0 0.00 0.00 0.00 39 1017.1
20260501235233 51 342 5.0 9.0 0.00 0.00 0.00 39 1017.1
20260501235133 51 341 5.0 9.0 0.00 0.00 0.00 40 1017.1
20260501235033 51 340 5.0 9.0 0.00 0.00 0.00 38 1017.1
20260501234933 51 338 5.0 9.0 0.00 0.00 0.00 39 1017.1
20260501234833 51 340 5.0 9.0 0.00 0.00 0.00 40 1017.2
20260501234733 52 339 5.0 9.0 0.00 0.00 0.00 39 1017.1
20260501234634 51 338 5.0 9.0 0.00 0.00 0.00 42 1017.1
20260501234534 51 337 5.0 9.0 0.00 0.00 0.00 41 1017.2
20260501234433 51 336 6.0 11.0 0.00 0.00 0.00 40 1017.2
20260501234334 51 335 6.0 11.0 0.00 0.00 0.00 41 1017.2
20260501234233 51 335 6.0 11.0 0.00 0.00 0.00 40 1017.1
20260501234133 51 336 6.0 11.0 0.00 0.00 0.00 39 1017.1
20260501234033 51 335 6.0 11.0 0.00 0.00 0.00 38 1017.1
20260501233933 51 337 6.0 11.0 0.00 0.00 0.00 40 1017.1
20260501233833 51 337 6.0 11.0 0.00 0.00 0.00 40 1017.1
20260501233733 51 339 6.0 11.0 0.00 0.00 0.00 40 1017.1
20260501233633 51 340 6.0 11.0 0.00 0.00 0.00 39 1017.1
20260501233533 51 341 6.0 11.0 0.00 0.00 0.00 39 1017.1
20260501233433 51 342 5.0 10.0 0.00 0.00 0.00 42 1017.1
20260501233333 51 342 5.0 10.0 0.00 0.00 0.00 42 1017.1
20260501233233 51 343 5.0 10.0 0.00 0.00 0.00 41 1017.0
20260501233133 51 344 5.0 10.0 0.00 0.00 0.00 40 1017.0
20260501233033 51 349 4.0 10.0 0.00 0.00 0.00 41 1017.1
20260501232933 51 346 4.0 10.0 0.00 0.00 0.00 40 1017.0
20260501232832 51 348 4.0 10.0 0.00 0.00 0.00 40 1017.0
20260501232733 51 348 4.0 11.0 0.00 0.00 0.00 41 1017.1
20260501232633 52 346 4.0 11.0 0.00 0.00 0.00 40 1017.1
20260501232533 52 346 5.0 11.0 0.00 0.00 0.00 40 1017.0
20260501232432 52 349 5.0 11.0 0.00 0.00 0.00 39 1017.0
20260501232333 52 350 4.0 11.0 0.00 0.00 0.00 40 1017.1
20260501232233 52 349 5.0 11.0 0.00 0.00 0.00 39 1017.0
20260501232133 52 348 5.0 11.0 0.00 0.00 0.00 39 1017.0
20260501232033 52 345 4.0 11.0 0.00 0.00 0.00 40 1017.0
20260501231933 52 344 5.0 11.0 0.00 0.00 0.00 40 1017.0
20260501231833 51 343 5.0 11.0 0.00 0.00 0.00 41 1017.0
20260501231732 51 341 5.0 9.0 0.00 0.00 0.00 39 1017.0
20260501231633 51 342 5.0 10.0 0.00 0.00 0.00 41 1017.0
20260501231533 51 342 5.0 11.0 0.00 0.00 0.00 39 1017.0
20260501231433 51 341 5.0 11.0 0.00 0.00 0.00 40 1017.0
20260501231333 51 342 6.0 11.0 0.00 0.00 0.00 40 1017.0
20260501231233 50 341 6.0 11.0 0.00 0.00 0.00 39 1017.1
20260501231133 50 341 6.0 11.0 0.00 0.00 0.00 39 1017.1
20260501231033 50 343 7.0 11.0 0.00 0.00 0.00 38 1017.1
20260501230933 50 343 7.0 11.0 0.00 0.00 0.00 39 1017.1
20260501230832 50 343 6.0 11.0 0.00 0.00 0.00 39 1017.1
20260501230733 50 343 6.0 11.0 0.00 0.00 0.00 39 1017.1
20260501230633 50 343 6.0 11.0 0.00 0.00 0.00 40 1017.1
20260501230534 50 341 7.0 11.0 0.00 0.00 0.00 40 1017.1
20260501230432 50 339 7.0 13.0 0.00 0.00 0.00 40 1017.0
20260501230333 50 339 7.0 13.0 0.00 0.00 0.00 40 1017.0
20260501230233 50 338 7.0 13.0 0.00 0.00 0.00 40 1017.0
20260501230133 50 338 7.0 13.0 0.00 0.00 0.00 40 1017.0
20260501230032 50 338 7.0 13.0 0.00 0.00 0.00 41 1017.0
20260501225933 50 338 7.0 13.0 0.00 0.00 0.00 41 1017.0
20260501225833 50 338 7.0 13.0 0.00 0.00 0.00 40 1017.0
20260501225733 50 338 7.0 13.0 0.00 0.00 0.00 39 1017.0
20260501225633 51 338 8.0 13.0 0.00 0.00 0.00 39 1017.0
20260501225533 51 338 8.0 13.0 0.00 0.00 0.00 40 1017.0
20260501225432 51 338 7.0 12.0 0.00 0.00 0.00 41 1017.1
20260501225333 51 337 7.0 12.0 0.00 0.00 0.00 40 1017.0
20260501225233 51 336 7.0 12.0 0.00 0.00 0.00 39 1017.0
20260501225133 51 336 8.0 13.0 0.00 0.00 0.00 39 1017.1
20260501225033 51 336 9.0 16.0 0.00 0.00 0.00 39 1017.0
20260501224933 51 335 8.0 16.0 0.00 0.00 0.00 39 1017.0
20260501224832 51 334 8.0 16.0 0.00 0.00 0.00 38 1017.0
20260501224733 51 335 8.0 16.0 0.00 0.00 0.00 39 1017.0
20260501224633 52 334 8.0 16.0 0.00 0.00 0.00 38 1017.0
20260501224533 52 334 8.0 16.0 0.00 0.00 0.00 38 1017.0
20260501224432 52 334 8.0 16.0 0.00 0.00 0.00 38 1017.0
20260501224333 52 336 8.0 16.0 0.00 0.00 0.00 37 1017.0
20260501224233 52 337 8.0 16.0 0.00 0.00 0.00 38 1016.9
20260501224133 52 337 7.0 16.0 0.00 0.00 0.00 38 1017.0
20260501224033 52 339 7.0 12.0 0.00 0.00 0.00 39 1017.0
20260501223932 52 339 7.0 12.0 0.00 0.00 0.00 38 1017.0
20260501223833 52 340 7.0 12.0 0.00 0.00 0.00 38 1017.0
20260501223733 51 339 7.0 12.0 0.00 0.00 0.00 38 1017.0
20260501223632 52 341 7.0 12.0 0.00 0.00 0.00 38 1017.0
20260501223533 52 347 6.0 12.0 0.00 0.00 0.00 38 1017.0
20260501223434 52 347 6.0 11.0 0.00 0.00 0.00 40 1017.0
20260501223333 52 346 6.0 11.0 0.00 0.00 0.00 39 1017.0
20260501223232 52 345 7.0 11.0 0.00 0.00 0.00 39 1017.0
20260501223132 52 345 7.0 13.0 0.00 0.00 0.00 39 1016.9
20260501223033 53 343 7.0 15.0 0.00 0.00 0.00 36 1017.0
20260501222933 53 343 7.0 15.0 0.00 0.00 0.00 39 1016.9
20260501222832 53 341 6.0 15.0 0.00 0.00 0.00 39 1016.8
20260501222733 53 336 6.0 15.0 0.00 0.00 0.00 38 1017.0
20260501222633 53 329 6.0 15.0 0.00 0.00 0.00 39 1017.0
20260501222534 53 323 6.0 15.0 0.00 0.00 0.00 38 1017.0
20260501222432 53 322 6.0 15.0 0.00 0.00 0.00 38 1017.0
20260501222333 53 317 6.0 15.0 0.00 0.00 0.00 39 1017.0
20260501222233 53 312 6.0 15.0 0.00 0.00 0.00 40 1017.0
20260501222133 53 307 6.0 15.0 0.00 0.00 0.00 38 1016.9
20260501222032 53 305 5.0 14.0 0.00 0.00 0.00 40 1017.0
20260501221932 53 309 6.0 11.0 0.00 0.00 0.00 37 1016.9
20260501221833 53 314 6.0 16.0 0.00 0.00 0.00 38 1017.0
20260501221733 53 320 6.0 16.0 0.00 0.00 0.00 40 1017.0
20260501221632 53 325 6.0 16.0 0.00 0.00 0.00 40 1017.0
20260501221533 53 329 7.0 16.0 0.00 0.00 0.00 39 1017.0
20260501221433 53 327 7.0 16.0 0.00 0.00 0.00 41 1017.0
20260501221332 53 331 6.0 16.0 0.00 0.00 0.00 38 1016.9
20260501221233 53 334 6.0 16.0 0.00 0.00 0.00 40 1016.9
20260501221133 52 337 5.0 16.0 0.00 0.00 0.00 39 1017.0
20260501221032 53 340 5.0 16.0 0.00 0.00 0.00 38 1016.9
20260501220932 53 344 4.0 16.0 0.00 0.00 0.00 41 1017.0
20260501220833 53 346 4.0 13.0 0.00 0.00 0.00 38 1016.9
20260501220733 53 354 3.0 13.0 0.00 0.00 0.00 38 1016.9
20260501220632 53 5 3.0 13.0 0.00 0.00 0.00 39 1017.0
20260501220533 53 16 2.0 11.0 0.00 0.00 0.00 40 1016.9
20260501220433 52 47 1.0 7.0 0.00 0.00 0.00 40 1016.8
20260501220333 52 47 1.0 5.0 0.00 0.00 0.00 40 1016.9
20260501220232 52 37 2.0 7.0 0.00 0.00 0.00 40 1017.0
20260501220132 52 30 2.0 10.0 0.00 0.00 0.00 41 1016.9
20260501220033 52 17 2.0 10.0 0.00 0.00 0.00 40 1017.0
20260501215933 52 6 3.0 12.0 0.00 0.00 0.00 40 1016.9
20260501215832 52 359 4.0 12.0 0.00 0.00 0.00 39 1016.9
20260501215732 52 355 4.0 13.0 0.00 0.00 0.00 40 1016.9
20260501215633 52 355 5.0 13.0 0.00 0.00 0.00 40 1017.0
20260501215533 52 353 5.0 13.0 0.00 0.00 0.00 40 1017.0
20260501215432 52 352 5.0 13.0 0.00 0.00 0.00 40 1017.0
20260501215333 52 350 5.0 13.0 0.00 0.00 0.00 40 1017.0
20260501215233 52 351 5.0 13.0 0.00 0.00 0.00 40 1017.0
20260501215132 52 348 5.0 13.0 0.00 0.00 0.00 41 1017.0
20260501215032 52 347 5.0 13.0 0.00 0.00 0.00 40 1017.1
20260501214933 53 345 5.0 13.0 0.00 0.00 0.00 39 1016.9
20260501214833 53 346 5.0 13.0 0.00 0.00 0.00 42 1016.9
20260501214732 52 345 5.0 12.0 0.00 0.00 0.00 41 1016.9
20260501214632 52 338 4.0 10.0 0.00 0.00 0.00 40 1016.9
20260501214533 52 339 5.0 10.0 0.00 0.00 0.00 41 1016.9
20260501214432 52 341 5.0 10.0 0.00 0.00 0.00 40 1016.9
20260501214332 52 340 5.0 10.0 0.00 0.00 0.00 41 1016.9
20260501214233 52 336 5.0 11.0 0.00 0.00 0.00 41 1016.9
20260501214133 52 336 5.0 11.0 0.00 0.00 0.00 41 1017.0
20260501214033 52 337 5.0 11.0 0.00 0.00 0.00 40 1016.9
20260501213933 52 338 6.0 11.0 0.00 0.00 0.00 39 1017.0
20260501213833 52 337 6.0 12.0 0.00 0.00 0.00 41 1016.9
20260501213732 52 337 6.0 12.0 0.00 0.00 0.00 43 1016.9
20260501213632 51 338 7.0 14.0 0.00 0.00 0.00 42 1016.9
20260501213533 51 338 7.0 14.0 0.00 0.00 0.00 42 1016.9
20260501213432 51 337 8.0 14.0 0.00 0.00 0.00 44 1016.9
20260501213332 50 341 8.0 14.0 0.00 0.00 0.00 42 1016.9
20260501213233 50 344 8.0 14.0 0.00 0.00 0.00 41 1017.0
20260501213133 50 347 8.0 14.0 0.00 0.00 0.00 41 1017.0
20260501213032 50 347 8.0 14.0 0.00 0.00 0.00 41 1016.9
20260501212933 51 348 8.0 14.0 0.00 0.00 0.00 40 1017.0
20260501212833 51 348 8.0 14.0 0.00 0.00 0.00 41 1016.9
20260501212733 51 348 7.0 14.0 0.00 0.00 0.00 41 1017.0
20260501212632 51 350 7.0 14.0 0.00 0.00 0.00 43 1017.0
20260501212533 51 351 7.0 14.0 0.00 0.00 0.00 42 1016.9
20260501212433 52 352 6.0 14.0 0.00 0.00 0.00 41 1016.9
20260501212332 52 349 5.0 13.0 0.00 0.00 0.00 41 1016.9
20260501212232 52 350 5.0 13.0 0.00 0.00 0.00 42 1016.9
20260501212133 52 347 4.0 13.0 0.00 0.00 0.00 41 1016.9
20260501212033 52 349 4.0 12.0 0.00 0.00 0.00 43 1016.9
20260501211932 52 352 4.0 12.0 0.00 0.00 0.00 40 1016.9
20260501211833 51 352 4.0 12.0 0.00 0.00 0.00 40 1016.9
20260501211733 51 350 5.0 13.0 0.00 0.00 0.00 40 1016.9
20260501211632 51 348 5.0 13.0 0.00 0.00 0.00 44 1016.9
20260501211532 51 347 5.0 13.0 0.00 0.00 0.00 42 1016.8
20260501211432 50 346 5.0 13.0 0.00 0.00 0.00 42 1016.9
20260501211333 50 345 5.0 13.0 0.00 0.00 0.00 40 1016.8
20260501211232 50 344 5.0 13.0 0.00 0.00 0.00 41 1016.9
20260501211132 51 341 6.0 13.0 0.00 0.00 0.00 42 1016.9
20260501211033 51 339 6.0 13.0 0.00 0.00 0.00 43 1016.9
20260501210933 51 338 6.0 13.0 0.00 0.00 0.00 42 1017.0
20260501210832 51 338 5.0 13.0 0.00 0.00 0.00 41 1016.9
20260501210733 51 341 5.0 10.0 0.00 0.00 0.00 41 1016.9
20260501210632 51 344 4.0 10.0 0.00 0.00 0.00 42 1016.9
20260501210532 51 348 4.0 10.0 0.00 0.00 0.00 41 1017.0
20260501210432 51 352 4.0 10.0 0.00 0.00 0.00 40 1016.9
20260501210333 51 357 4.0 10.0 0.00 0.00 0.00 40 1016.8
20260501210232 51 359 5.0 10.0 0.00 0.00 0.00 40 1016.9
20260501210132 51 8 4.0 12.0 0.00 0.00 0.00 43 1016.8
20260501210033 51 12 4.0 12.0 0.00 0.00 0.00 43 1016.9
20260501205932 51 11 5.0 13.0 0.00 0.00 0.00 41 1016.9
20260501205833 51 7 5.0 14.0 0.00 0.00 0.00 41 1016.9
20260501205732 51 5 6.0 14.0 0.00 0.00 0.00 42 1017.0
20260501205632 52 2 6.0 14.0 0.00 0.00 0.00 42 1016.9
20260501205532 52 357 6.0 14.0 0.00 0.00 0.00 42 1017.0
20260501205432 52 353 7.0 14.0 0.00 0.00 0.00 41 1017.0
20260501205333 52 350 7.0 14.0 0.00 0.00 0.00 42 1017.0
20260501205232 52 345 7.0 14.0 0.00 0.00 0.00 41 1017.1
20260501205132 52 342 7.0 14.0 0.00 0.00 0.00 43 1017.1
20260501205032 52 340 7.0 17.0 0.00 0.00 0.00 43 1017.1
20260501204932 52 338 7.0 17.0 0.00 0.00 0.00 43 1017.1
20260501204832 52 337 7.0 17.0 0.00 0.00 0.00 43 1017.1
20260501204733 52 338 7.0 17.0 0.00 0.00 0.00 43 1017.1
20260501204632 52 336 7.0 17.0 0.00 0.00 0.00 41 1017.1
20260501204532 52 336 7.0 17.0 0.00 0.00 0.00 40 1017.1
20260501204432 52 335 7.0 17.0 0.00 0.00 0.00 42 1017.1
20260501204332 52 337 7.0 17.0 0.00 0.00 0.00 43 1017.1
20260501204232 52 338 6.0 17.0 0.00 0.00 0.00 41 1017.1
20260501204132 52 340 6.0 17.0 0.00 0.00 0.00 41 1017.1
20260501204033 52 342 5.0 12.0 0.00 0.00 0.00 43 1017.1
20260501203933 52 341 6.0 12.0 0.00 0.00 0.00 40 1017.1
20260501203832 52 340 6.0 12.0 0.00 0.00 0.00 43 1017.1
20260501203732 52 337 6.0 12.0 0.00 0.00 0.00 40 1017.1
20260501203633 52 340 6.0 12.0 0.00 0.00 0.00 42 1017.1
20260501203532 52 339 5.0 12.0 0.00 0.00 0.00 42 1017.1
20260501203432 52 338 6.0 15.0 0.00 0.00 0.00 42 1017.1
20260501203333 51 336 7.0 17.0 0.00 0.00 0.00 43 1017.1
20260501203232 51 335 7.0 17.0 0.00 0.00 0.00 43 1017.1
20260501203132 51 334 8.0 17.0 0.00 0.00 0.00 43 1017.2
20260501203033 51 332 8.0 17.0 0.00 0.00 0.00 41 1017.1
20260501202932 51 333 8.0 17.0 0.00 0.00 0.00 43 1017.1
20260501202832 51 334 8.0 17.0 0.00 0.00 0.00 42 1017.2
20260501202732 51 334 8.0 17.0 0.00 0.00 0.00 44 1017.2
20260501202633 50 333 7.0 17.0 0.00 0.00 0.00 44 1017.1
20260501202532 50 335 7.0 17.0 0.00 0.00 0.00 42 1017.1
20260501202432 50 338 6.0 17.0 0.00 0.00 0.00 42 1017.2
20260501202332 50 344 6.0 14.0 0.00 0.00 0.00 45 1017.1
20260501202233 50 347 5.0 13.0 0.00 0.00 0.00 43 1017.1
20260501202132 50 347 5.0 13.0 0.00 0.00 0.00 41 1017.1
20260501202032 50 350 4.0 13.0 0.00 0.00 0.00 42 1017.2
20260501201933 50 354 4.0 13.0 0.00 0.00 0.00 43 1017.2
20260501201833 50 354 3.0 13.0 0.00 0.00 0.00 44 1017.2
20260501201732 50 356 3.0 13.0 0.00 0.00 0.00 43 1017.2
20260501201632 50 354 3.0 13.0 0.00 0.00 0.00 42 1017.2
20260501201532 50 346 4.0 14.0 0.00 0.00 0.00 42 1017.3
20260501201432 50 342 4.0 14.0 0.00 0.00 0.00 42 1017.2
20260501201333 50 338 5.0 14.0 0.00 0.00 0.00 44 1017.3
20260501201232 50 335 5.0 14.0 0.00 0.00 0.00 43 1017.3
20260501201132 50 333 5.0 14.0 0.00 0.00 0.00 43 1017.3
20260501201033 50 334 5.0 14.0 0.00 0.00 0.00 43 1017.3
20260501200932 50 336 5.0 14.0 0.00 0.00 0.00 41 1017.2
20260501200832 50 337 5.0 14.0 0.00 0.00 0.00 43 1017.3
20260501200732 50 336 5.0 14.0 0.00 0.00 0.00 42 1017.3
20260501200632 50 336 5.0 14.0 0.00 0.00 0.00 42 1017.3
20260501200532 50 339 4.0 12.0 0.00 0.00 0.00 43 1017.2
20260501200432 50 343 4.0 10.0 0.00 0.00 0.00 43 1017.3
20260501200332 50 343 4.0 12.0 0.00 0.00 0.00 42 1017.3
20260501200232 50 345 4.0 12.0 0.00 0.00 0.00 45 1017.3
20260501200132 50 346 4.0 12.0 0.00 0.00 0.00 44 1017.3
20260501200032 50 348 4.0 12.0 0.00 0.00 0.00 45 1017.4
20260501195932 50 346 4.0 12.0 0.00 0.00 0.00 42 1017.4
20260501195832 51 346 4.0 12.0 0.00 0.00 0.00 42 1017.3
20260501195732 51 347 5.0 12.0 0.00 0.00 0.00 42 1017.3
20260501195632 52 348 5.0 12.0 0.00 0.00 0.00 43 1017.3
20260501195532 52 347 5.0 12.0 0.00 0.00 0.00 43 1017.3
20260501195432 52 341 5.0 12.0 0.00 0.00 0.00 45 1017.3
20260501195332 52 342 5.0 12.0 0.00 0.00 0.00 46 1017.3
20260501195233 51 342 5.0 13.0 0.00 0.00 0.00 42 1017.3
20260501195132 51 344 6.0 13.0 0.00 0.00 0.00 44 1017.3
20260501195032 51 342 7.0 13.0 0.00 0.00 0.00 45 1017.3
20260501194933 51 341 8.0 13.0 0.00 0.00 0.00 44 1017.4
20260501194832 51 342 7.0 13.0 0.00 0.00 0.00 45 1017.3
20260501194732 51 342 6.0 13.0 0.00 0.00 0.00 48 1017.3
20260501194632 51 342 6.0 13.0 0.00 0.00 0.00 45 1017.3